User: anonymous   Login
Location: Unspecified
(0.0000°N, 0.0000°E)
Time: 03:36:09
(UTC+00:00)
Language:

POPSAT HIP 1 - Orbit

View from above orbital plane
View from above orbital plane
View from above satellite
View from above satellite

Ground track
Ground track

The orbit data is extracted from the following two-line orbital elements,

1 40028U 14033U   17112.70972638 +.00001586 +00000-0 +17755-3 0  9997
2 40028 097.9187 024.1428 0015204 122.9761 237.2921 14.88243571154221
Epoch (UTC): 22 April 2017 17:02:00
Eccentricity: 0.0015204
inclination: 97.9187°
perigee height: 593 km
apogee height: 614 km
right ascension of ascending node: 24.1428°
argument of perigee: 122.9761°
revolutions per day: 14.88243571
mean anomaly at epoch: 237.2921°
orbit number at epoch: 15422

The dashed part of the orbit path shows where the satellite is in the earth's shadow,  

DLR